"Pseudo-MPEC" for gb00279

Created 2021 Jun 20 18:07:25 UT using Find_Orb

Click here for an explanation of pseudo-MPECs

 
 Astrometry: 
     gb00279  C2021 06 089hoS5j+(cx`udcC57Fc[e_84cO(Fl[`4+m#Ox?W;qrj\5hKL44.yL51
     gb00279  C2021 06 08t47)p]u+w/6jf?C+Q^WIO9^=ddQSr+MMsd0CG,NEo?i\82AiKx8TL51
     gb00279  C2021 06 08kvK0aVc3aj:4.KWU1`TZYxqd^a56yC(PnlkK/Xfys!-xX/KiQI`IL51
     gb00279  C2021 06 103x0#4cFpm;^@K=,Jj-1hfNQ^St64_i2Il!2mKZ.hNm[4r%B)Gb1xL51
     gb00279  C2021 06 10FdM6@audNx0)e#TEevcmjy(XJE2WX2u+IGxZuwj$n2a3/$'SW/o6L51
     gb00279  C2021 06 103ny%t1!Z4q'3QdAZilg#UE^b#G19Z/3+)x`c3WjF.Fd*jMM1P(V4L51
     gb00279 hC2021 06 10k3[VLo\5\Bs[(\n`'nH'XRb5g0=CybW4?]^UM@wF!\of==hEOu-QL01
     gb00279  C2021 06 10Uve9VMSud7P7W(]3.@(N](Oki'Fey2Y;P5h]dSNnj,v(s^HUf+U]L51
     gb00279 hC2021 06 10h+N1fuQea0[7y#O=0#eUc]\+8A6m$XRRjMA^4+?^B/US2@bv\E27L01
     gb00279 hC2021 06 10PJX@r\SJhCC'*#d;vsp)`6k6s6AstrometryHdfMBayX:IF7F/MGL01
     gb00279 hC2021 06 102'eM$_w-y3y5`5]JVdF=c$W3KH3gW;hCBTJFmGTlZS[uhyD)F;F$L01
     gb00279 2C2021 06 11L3)tGKQb9t*GDQnk+:^uUnT%Q@wYG1bAX3s@'G$(FUwk:kqRAY5[095
     gb00279 2C2021 06 118f52cnYNW!,DNKO+Tu:+gUP8-q?@,XLikj^$oY%9-+?]js2_Xy:.095
     gb00279 2C2021 06 11l!1BfeT9Ty)l$Ga]UEft(VGnoYn/A:eG%-hDa'x;dE?e`l;GXi)h095
     gb00279 2C2021 06 11jx^IFGk`2lesZ/[;av%`oEGq7sI`V7PTuTTwyn/E3)Zvu^nUxcTy095
     gb00279 2C2021 06 114kpanV+`L[n'XGOAmcJM_Bw61vSeOh0E)$UGdNEd/W2^x%G#,ay.095
     gb00279 2C2021 06 11^6t4i_d1J/;(el[DkESHW8!69XBW+_G%sk]hGqK2h=m2/8@1JX2`095
     gb00279 2C2021 06 11KD]Vh?#G8nePK.QvYcv0Q_HKqL)]3.(J488S;_Fd$P52'eED*vT5095
     gb00279 2C2021 06 11[V`,)Cjp+L@@d2MYqsCOI2b*xaN\](Ks_e%B.I89uX39Das;4j^O095
     gb00279 2C2021 06 11,B'Hqc+S4Xly^4a-T]8hv\)ow=fBU;(RBPI_6VMn#L,7g:AQ0cMm095
     gb00279 2C2021 06 11FwDcfsXIKTyN9i_f^bljS3^KT5\r=Ons\W:0ic5C6`#VD?hr5'DC095
     gb00279 2C2021 06 11pZ;g/4[\JlP4[9$X0BHpyXnZ66Iq4mhnbUWPknU]Dis8m+HiTrh2095
     gb00279 2C2021 06 11@,G0wp(1=pZ%k0p_e.*/'BfDl@p4-6A.FX()vx=VX/fNHR\,a=N=095
     gb00279 2C2021 06 11*Lc$vxe2?s37R;t(nl^L!JT#70=.8[8?Dq;B\(;0o,bd'DXs(^NR095
     gb00279 2C2021 06 119+/*oL8.-+',BN8JDH?Pd*1.^6!fCnLRxA$6)fu0rwSFjWD8QOW5095
     gb00279 2C2021 06 11:?QyV,?Sk+x3/iOdMGZH,klxBA/W\Oc5_o.8JCHg,k]\Vd)LDQ26095
     gb00279 KC2021 06 11x02?@jUI-D.SFL-iOtO@W1Pvo@40xywrsg'BNLPPYvWf?`:HZK41L06
     gb00279  C2021 06 11G)gB)VR(UOT(p[JD-TOf*`,#FKZr_E?hgaLCn.RwbZnC^l+8uKB[L51
     gb00279 KC2021 06 11Xy[$Jpv0;pR\WX%Kf1I(kq)=1A9\=N:dsAZI+O?]2Qk\#%eHPkRnL06
     gb00279  C2021 06 11VMa8E5-;SZ63)A=#%)Tut01QjPT@u,hQ3)D2?+(L?`H`W%?`3n4DL51
     gb00279  C2021 06 11%f4V@.QQ]mZ[ZSfb+@-@wg_7SKDYk2i1utkLW9,8s:X[t=a:K(k8L51
     gb00279 KC2021 06 11A(8uS7.EIw0xKVJ]o1OhK.IyKd9PF*Bhf5=?LKO)NM_R0Tc`vhHEL06
     gb00279 2C2021 06 11gscZ$d,*5IJ;NBE*KsWd%BC(nePmS#Wg[u,\'6q*:g272b_sMd;E095
     gb00279 2C2021 06 11-wns'a_G@mSVtD(X8ojO',8fZ?Pu8M2eTtkmll4`FD4DLm\A]2HD095
     gb00279 2C2021 06 11$4$C?S;1Nv5A(H3pb3;wWgD:/[L1%P]M?7B*qJ,L!iO4_7ThYv2M095
     gb00279 2C2021 06 11+HSpM]p10i-ssWSZ*TI3CbJEqm$m%,x'_nUC?@-.v:\or5)VjRig095
     gb00279 KC2021 06 11om2f`jY@v1G6YVYxP@a[Cv-2Y=Vf`C[SU!n4hPEifXy1*@r1UoabB49
     gb00279 2C2021 06 12'@Y^,?[ALkB@kVbAU,b4,aEj[q!6fbRG)1_iPA1#2SwWd:R?F:S,095
     gb00279 2C2021 06 12VRv7IRNi:kwlPABKRE7_wnI7Gi];vCqO?cRq7vfqg=cq^`C6_4P\095
     gb00279 2C2021 06 12)ys*h0yeSqns4FDKBdvc(:[@X1_lavO`oY)YH3*`b+C_IsH+3)Lg095
     gb00279 KC2021 06 12;]'.x#]8LqA,*i@4+,He)-5U@j9lWT)^[;thK;tU_:CDA)F,2SuhB49
     gb00279 2C2021 06 12cXVb60FNM'j'UX,K,;0G^.BAU(-.XuKtT'6Dl\r?sN,D[G.\_=XZ095
     gb00279 |C2021 06 12r:gZrb`lpg]:3sg,7),e2l/Gmr),5;faUSANp'tfIW'\QHiBQO-=H06
     gb00279 |C2021 06 12vqdiiGvXb?p:l@Bf,Exg[)5$KAT3^P*#sMJo_32$+\w:=b_oPux?H06
     gb00279  C2021 06 12y$`S7y]uWHL-9leD(]u*xmG7bw2;2?W?VVWQ2hS^n:R;YvCL(:?OL51
     gb00279  C2021 06 12,[LrPB*oS$%c50u#c4qWff60-h8!ag-wmMidwCB,W3\ZPp,b\rRxL51
     gb00279  C2021 06 12(_Ata(;HYb(-Rm*Oi,5Gsq[$Agf#:VvXQqs3fAmOJ[q^d`DSa%CvL51
     gb00279 KC2021 06 13.00787 22 02 33.26 +72 22 32.6    ~6D1M 20.1 GVNEOCP970
     gb00279 KC2021 06 13F0b$$ZZ!8erex^akgeEH\]fv(@^E[vkE8oJr)KenwPG57l#V8%8OB96
     gb00279 KC2021 06 13.02399 22 02 32.69 +72 22 41.4    ~6D1M 19.8 GVNEOCP970
     gb00279 KC2021 06 13liW2MWWb--ELW/(]$%g%;Yqr5cwN9iqJUx(f`5im5oKS$Sj\3Wa(B96
     gb00279 KC2021 06 1363LPwTiAKnvIv=/e,T!'-%5wbH/#*E6*qg[%0VP$-STJbt0?N1F6B96
     gb00279 KC2021 06 13j[g,]vdgvqGA-M,cW0p1?@smPlA;91`tyFXO0yKeKM`XlA1WlBv2J57
     gb00279  C2021 06 13pi=bd2!vLPOsb$]a*H2W/j1UfB2X?.D5Q;w(y8T)gMkE1R)3?:v/L51
     gb00279 KC2021 06 13%ROdaAs`VJ!S@),X^5yeyP3\dRw`;V8EX#,yPl/THcu+I-C9a/s:J57
     gb00279  C2021 06 13_,v#8Md.*VSbY9c`K.hm98T]Q;F$U_eRc#YMecredacted;)rL=2L51
     gb00279  C2021 06 13hr9xZ(kst0%;V)KnW%L6,kidL,vngHae(C1U=1fBvQlN.KEWlE!VL51
     gb00279 KC2021 06 13K-,st.Z:6XKku61r.RHTV'U7MT8]%CRtQghgE92t)Dl,xH`%Xf`4587
     gb00279 KC2021 06 13X3hJJHJmTEDA3e@'w;dAadM`fheE.%3f8U7Wa/clickf`--Nr(/IA71
     gb00279 KC2021 06 13CMk^8rDX`c#ohj5ZvWh+C(l+0d3s40GYn_+9=FVuoy?*Y?1VQS;NA71
     gb00279 KC2021 06 135.YLFs`V@sKY%Q%NtMEX-?C=pv2Df@XfGX_aiZ[:9:2j?`JmhpKuA71
     gb00279 KC2021 06 13.99295622 01 48.68 +72 31 26.0    ~6E0q 20.1 GVNEOCPJ95
     gb00279 KC2021 06 13iol_E$]1EoQl(kSqKhed(w/!7Yn%)tTriF14KIJrQpB#qGl\fN3uB96
     gb00279 IC2021 06 14.00591622 01 48.16 +72 31 32.9    ~6E0q       VNEOCPJ95
     gb00279 KC2021 06 14*%.x*lL9;_**dS*4%5*2bQYT4E\!tf]?eOk$m-=Qk(*up0dUjv=A587
     gb00279 KC2021 06 14VK/U-1Pt73mV^ZcER;64y1*cP9SL0O\[^8ioB=a/0=KHR4n*)*)pB96
     gb00279 KC2021 06 14lFpFLu/3!+)wD,f;14mE\Q)gI27LX7v$=SLg'#J$YHdEcu4Wupb$B96
     gb00279 KC2021 06 1472jN8H?4']jZcc!E@%ITM4ykcg^^dbuv,$hUw\4GpxdrC*QF^%48L27
     gb00279 KC2021 06 14px%r\=6ym3+KU:HXv]Ym5C?XMp$fumXEk]q'UbZHO@s*ZubW2A$GL27
     gb00279 KC2021 06 14CYF982i+D4P'`W6Hl^w21'laDIs?Mu^J.*dFpS+:A[u'92)_JZq6L27
     gb00279 KC2021 06 15bcQ`g$%ny=?.G].q6:eWu;9h'vMQhereWDAsbrY)w^wPp^#SGOCa157
     gb00279 KC2021 06 15:U\UnKfor\DRh!Qct9\-B3Fscj%wI.A0#vFXDKoh$7jUH6jILcgN157
     gb00279 KC2021 06 15-i-+lLV?HQl(Z,7$;lwc(#-,)psWXc.45-7@_)9=.+v#ws@YPMeYL27
     gb00279 KC2021 06 15x^6VT?bC.PE!5N#)Ef4AC1ndjDk0#inmyIeELluKGeS$nyj\t4GiL27
     gb00279 KC2021 06 15Rkexplanation3C!kgp^fs`+^_1*[7+j0HC*hQ-tB@rD1_nJKAd0L27
     gb00279 KC2021 06 16%Jvd_3o9#%a!Zk?vLwrFI2.d6Y+De$@O=SDV0$=1^b*:^0kWW:MCA71
     gb00279 KC2021 06 16HlY\w3b8kU-jfqn)],FgF*x8;/,C,U5?kfRK)DKtTX@O2#fIT?.,A71
     gb00279 KC2021 06 171I;=F!L5@qLB_qmY%%RE/dHu]rOV[g)P^*Qe?q\ux%ZoLntRFsadL02
     gb00279 KC2021 06 17u6!m@WMUD1,];7H4c*da/x0\F^hlW)1,?2_j'ohlU%alMv/2:pu8L02
     gb00279 KC2021 06 18Z1_y+O\p\)6;Mq0;d?AK2H!AZ;l0TLAmEuxNWo03R)%r9t\3o-E/W62
     gb00279 KC2021 06 18@R$fbX9^K8Y$f6MQ$%Q-^#X_3NGXl0Sx4?;G2yLJX*kHWBL6MYtQW62
     gb00279 KC2021 06 18ZSjm'7M!3KjR@7e?=iwHZYVp*`j5tC%A$q!Qr4Wgw-,=KunM0H,fW62

Station data:
(095) Crimea-Nauchnij  (N44.726558 E34.016000)  Ukraine.
(157) Frasso Sabino  (N42.227537 E12.811700)  Italy.
(587) Sormano  (N45.882949 E9.229180)  Italy.  Observers F. Manca, A. Testa.
   Measurer F. Manca. 0.5-m + CCD.
(970) Chelmsford  (N51.744716 E0.495400)  UK.  Observer N. James. 0.28-m f/10
   Schmidt-Cassegrain + CCD.
(A71) Stixendorf  (N48.428775 E15.453300)  Austria.
(B49) Paus Observatory, Sabadell  (N41.551035 E2.112500)  Spain.
(B96) Brixiis Observatory, Kruibeke  (N51.163512 E4.310310)  Belgium.
(H06) RAS Observatory, Mayhill  (N32.903325 W105.528700)  US/New
   Mexico.  Observers E. Guido, G. Sostero, V. Gonano, L. Donato.
(J57) Centro Astronómico Alto Turia, Valencia  (N39.950159 W1.109110)  Spain.
(J95) Great Shefford  (N51.474969 W1.447003)  UK.  Observer P. Birtwhistle.
   0.40-m f/6.0 Schmidt-Cassegrain + CCD.
(L01) Višnjan Observatory, Tičan  (N45.290900 E13.749300)  Croatia.
   Observers K. Korlević, E. Pettarin. Measurer E. Pettarin. 1.0-m f/2.9
   reflector + CCD.
(L02) NOAK Observatory, Stavraki  (N39.652455 E20.816580)  Greece.
(L06) Sormano 2 Observatory, Bellagio Via Lattea  (N45.970103 E9.254030)
   Italy.
(L27) 29PREMOTE Observatory, Dauban  (N43.999847 E5.647040)  France.
(L51) MARGO, Nauchnij  (N44.729400 E34.016400)  Ukraine.
(W62) Comet Hunter Observatory2, New Ringgold  (N40.745188 W75.862390)
   US/Pennsylvania.

Orbital elements:  gb00279
   Perihelion 2022 Feb 19.286182 +/- 36.2541 TT =  6:52:06 (JD 2459629.786182)
Epoch 2021 Jun 18.0 TT = JDT 2459383.5                        AutoNEOCP
M 359.93157411 +/- 0.0426643        (J2000 ecliptic)
n   0.00027783 +/- 0.000504493      Peri.   91.84847 +/- 2.0909227
a 232.603270 +/- 284.761            Node   344.90529 +/- 0.1257136
e   0.9637456 +/- 0.0442776         Incl.   78.58415 +/- 0.0290087
P3547.51                   H 10.5   G  0.15   U  7.6  
q 8.43288243 +/- 0.0529435    Q 456.773658 +/- 356.557
From 82 observations 2021 June 8-18; mean residual 0".47
Residuals in arcseconds: 
210608 L51  .35-  .06+    210611 L06  .47+  .30-    210613 L51  .17-  .09+    
210608 L51  .31+  .34+    210611 L51  .52+  .06-    210613 587  .14-  .07-    
210608 L51  .15-  .36-    210611 L51  .04+  .54+    210613 A71  .11-  .41+    
210610 L51  .61-  .02-    210611 L06  .59+  .39-    210613 A71  .34+  1.4-    
210610 L51  1.5-  1.1-    210611 095  .31+  .36+    210613 A71  .60+  .25-    
210610 L51  .20-  .70-    210611 095  .32+  .38+    210613 J95  .30-  .09-    
210610 L01  .04-  .45-    210611 095  .05+  .60+    210613 B96  .31+  .32-    
210610 L51  .79-  .26+    210611 095  .03-  .82+    210614 J95  .07+  .25-    
210610 L01  .01-  .10-    210611 B49  .22+  .01-    210614 587  .56-  .49-    
210610 L01  .53-  .15-    210612 095  .61+  .08+    210614 B96  .77+  .80+    
210610 L01  .36-  .23+    210612 095  .48+  .20+    210614 B96  1.1-  .48-    
210611 095  .32+  .46+    210612 095  .31+  .22+    210614 L27  .27+  .64+    
210611 095  .32+  .46+    210612 B49  1.5+  .28-    210614 L27  .02+  .53+    
210611 095  .33+  .45+    210612 095  .23+  .04+    210614 L27  .54-  .54+    
210611 095  .33+  .25+    210612 H06  .52+  .27+    210615 157  .73-  .26+    
